Dewpoint
63 64 64 64 63 64 64 64 64 65 65 64 64 64 64 63 62 63 63 63 63 64 64 63 62 62 61 61 62 63 63 63 64 64 64 64 64 66 67 67 67 66 65 63 63 62 64 63 63 63 63 62 62 62 62 62 62 62 61 62 61 61 61 60 60 60 60 60 59 59 59 58 58 59 59 59 58 58 58 57 57 57 58 58 58
64 64 64 64 64 63 64 64 64 64 64 64 64 63 63 62 62 63 63 62 63 64 63 63 63 62 62 62 62 63 63 64 64 64 64 64 65 66 66 67 67 66 67 65 63 62 63 63 63 62 63 63 63 63 63 62 62 62 62 62 62 61 61 60 60 60 60 60 60 59 59 59 59 59 58 58 58 58 58 57 57 58 58 57 57
64 64 64 63 63 63 63 63 63 63 64 64 64 64 63 62 62 61 60 61 62 63 63 62 62 61 62 61 62 63 64 64 65 64 64 64 65 65 66 68 67 67 67 66 65 63 63 63 63 63 64 64 64 64 63 63 62 62 61 62 61 61 61 61 60 60 60 60 60 59 59 59 59 58 58 58 58 58 58 57 57 57 57 56 56
64 63 63 62 62 63 63 63 63 63 64 64 63 62 62 63 63 63 64 63 62 63 63 63 63 62 62 62 62 63 63 64 64 64 65 65 65 65 65 66 68 67 67 67 66 65 63 63 62 64 64 65 65 65 64 64 63 62 62 61 61 61 61 61 60 60 60 60 60 60 60 59 59 59 59 58 58 58 58 57 57 57 58 58 57
64 64 65 62 62 62 63 62 62 63 64 64 64 62 63 63 63 63 63 63 63 63 64 62 62 63 62 63 63 63 63 63 64 65 65 65 65 65 65 65 65 67 67 67 67 67 65 64 62 62 62 65 66 65 64 64 64 63 63 62 61 60 60 60 60 60 60 60 60 59 59 59 59 59 59 58 58 58 57 57 57 57 57 57 57
63 63 63 62 62 62 62 62 62 63 63 64 63 62 62 62 63 62 64 62 62 61 61 62 62 63 63 63 63 62 63 64 64 65 65 65 66 65 65 65 64 64 65 68 67 67 66 66 63 62 61 64 66 66 65 65 65 63 63 63 62 61 60 60 60 60 60 60 60 60 59 59 59 59 59 58 58 58 58 57 57 57 57 57 56
63 63 62 62 62 62 62 62 64 64 64 63 63 62 62 62 62 61 61 62 62 62 61 61 62 63 63 63 63 63 63 63 65 65 65 65 65 65 64 64 64 65 65 63 67 66 66 66 64 63 61 66 66 66 66 66 65 64 63 63 63 62 61 60 60 61 60 60 60 59 59 59 59 59 58 58 58 58 58 58 57 57 57 57 56
63 63 62 62 62 61 62 63 64 64 63 62 62 62 60 61 61 60 61 62 63 62 61 61 62 63 63 63 63 63 63 64 64 65 65 64 64 64 64 64 63 64 66 63 62 64 65 66 66 66 65 62 62 61 63 66 65 65 64 64 64 62 62 62 61 61 60 60 60 60 59 59 59 59 59 58 58 58 58 57 57 57 57 57 56
64 64 63 62 62 61 63 64 64 64 63 61 61 60 61 62 61 61 60 61 62 63 62 61 62 63 63 62 62 62 62 63 63 64 64 63 63 65 64 63 64 68 63 62 63 63 65 66 65 65 66 66 64 62 59 63 65 65 65 66 65 64 63 63 62 62 61 61 61 60 60 60 59 59 59 58 58 58 58 58 58 57 57 57 57
64 64 63 63 63 63 63 64 64 63 62 62 61 61 61 61 61 61 62 60 60 61 60 60 62 62 62 62 62 62 62 63 64 65 63 63 64 64 64 64 64 64 63 63 62 63 63 65 66 66 66 65 65 66 61 60 61 63 65 66 65 65 64 64 63 63 62 61 61 61 61 60 60 59 59 58 58 58 58 58 57 57 57 57 56
64 64 64 64 63 63 63 63 63 63 62 62 61 61 61 60 61 60 61 61 60 60 60 60 61 62 62 62 62 62 62 63 62 62 62 64 65 65 64 63 64 63 63 63 62 63 63 63 62 63 63 67 68 67 68 65 62 61 63 64 65 65 65 65 64 64 63 63 62 61 61 61 60 60 59 58 59 58 58 58 57 57 57 57 57
64 63 63 63 63 62 63 62 62 62 61 61 59 60 61 60 60 61 61 62 61 60 60 61 61 61 61 62 63 62 62 62 62 62 62 63 63 64 64 64 64 64 64 63 63 63 63 63 63 63 64 65 65 65 65 65 65 65 64 64 64 64 64 64 65 64 64 64 63 62 62 61 61 60 60 60 59 59 58 59 58 58 57 57 57
64 63 63 65 62 62 62 62 62 62 61 60 60 61 61 60 61 60 59 59 60 61 59 59 61 60 59 59 60 62 63 62 62 62 62 62 63 63 63 63 63 64 64 64 63 63 63 62 62 62 62 62 62 64 64 64 64 64 64 64 64 64 64 64 64 64 64 63 63 63 62 62 62 61 61 61 60 59 59 59 59 58 57 58 57
63 63 63 63 62 62 62 61 61 61 61 61 60 62 61 61 61 59 59 59 58 60 59 57 57 58 58 57 58 59 61 61 61 62 62 62 62 63 63 63 63 63 64 64 62 64 63 62 61 62 62 62 62 62 63 63 63 64 64 64 63 64 64 64 64 64 64 64 64 64 63 63 62 62 61 61 61 60 59 59 58 59 58 57 58
62 63 63 62 62 62 62 61 61 62 60 59 60 60 60 61 60 60 59 59 60 61 60 58 56 57 57 56 54 53 56 57 59 60 61 62 62 62 63 63 63 62 63 63 63 63 64 62 62 62 62 62 62 62 63 63 63 62 63 63 64 64 64 64 65 64 64 64 64 64 64 64 63 63 62 62 62 61 61 60 59 59 59 58 58
62 62 62 61 61 62 62 61 62 62 60 59 59 59 59 60 60 59 58 56 57 58 61 60 57 58 54 53 53 53 52 53 55 57 60 61 62 62 62 62 63 62 61 62 62 62 62 63 62 62 62 63 63 64 63 62 61 61 61 62 63 64 64 64 65 65 64 64 64 64 64 64 64 64 64 63 63 62 61 61 60 59 59 59 58
60 60 61 60 60 60 61 61 61 62 61 60 61 61 60 60 60 59 57 57 57 57 59 60 59 59 56 54 51 49 50 52 54 55 59 60 61 62 63 61 62 61 61 61 61 61 62 63 63 63 63 62 62 61 60 59 58 60 58 59 60 62 64 66 64 63 64 64 64 64 64 64 64 64 64 64 64 63 62 61 60 60 60 59 59
58 58 60 60 59 60 59 60 61 61 61 60 60 62 60 60 59 60 59 58 58 57 57 58 59 60 57 55 53 52 53 54 53 52 58 60 60 61 61 61 60 61 60 60 61 62 63 63 63 62 60 59 59 59 58 58 59 58 58 58 57 58 59 63 65 64 64 64 64 63 63 63 64 63 63 63 64 64 63 62 62 61 61 60 60
58 58 59 59 59 60 59 59 60 60 61 60 60 61 61 61 61 60 59 59 57 55 57 58 56 57 59 58 58 57 57 54 51 53 53 56 58 60 60 62 61 61 61 62 62 62 63 62 61 59 58 57 56 56 56 56 57 57 58 57 56 55 56 58 63 64 64 64 64 63 63 63 64 63 63 63 63 64 63 63 63 63 62 61 61
58 57 58 59 58 59 59 58 59 59 59 58 58 59 60 60 60 60 60 58 57 58 57 57 56 56 58 57 58 57 57 56 55 53 53 53 56 59 60 59 61 61 62 62 62 62 61 60 58 57 56 54 54 53 53 53 53 53 54 55 55 55 55 56 56 58 62 64 64 64 63 63 63 63 63 63 63 63 63 63 62 63 63 63 62
58 58 57 58 58 57 58 58 58 58 59 59 59 60 59 59 58 58 58 58 57 57 58 56 57 57 56 56 57 55 56 55 56 55 53 54 55 57 57 59 60 61 61 62 62 62 59 56 55 54 53 52 52 52 52 52 53 53 54 54 54 54 55 54 54 54 56 62 63 63 64 64 64 64 63 63 63 62 63 62 62 62 62 62 62
56 57 57 57 55 56 57 57 57 58 59 59 59 59 59 59 58 59 59 58 58 58 58 57 57 57 56 56 55 54 55 54 54 54 54 54 55 56 57 57 56 59 61 61 61 58 54 52 51 50 50 50 51 51 52 52 52 53 53 53 53 52 52 52 50 53 55 57 60 61 61 62 62 62 61 61 61 61 61 61 62 62 62 62 61
55 55 55 56 57 58 57 57 57 59 58 58 58 58 58 57 57 57 57 57 57 57 57 57 56 56 56 56 56 56 55 53 54 52 52 53 55 55 55 56 57 57 59 60 59 55 51 51 50 50 50 50 50 50 51 51 53 53 53 53 52 52 51 49 48 50 53 57 58 57 58 58 58 58 57 56 56 56 56 56 57 58 58 59 60
53 53 54 55 55 55 55 55 56 55 55 55 55 55 55 55 55 55 55 55 55 57 55 56 55 55 55 55 56 55 55 55 55 54 54 55 55 55 55 56 56 57 59 56 58 52 48 48 48 48 48 49 50 51 51 50 51 51 50 52 52 51 51 50 48 48 48 52 55 56 56 56 55 55 56 55 54 54 54 54 54 55 55 55 56
53 54 54 54 54 52 52 53 53 54 54 54 54 54 53 53 53 53 53 52 52 52 52 53 54 54 53 54 56 56 56 56 56 55 55 55 55 54 54 54 52 55 56 56 53 49 48 46 46 47 47 48 48 48 48 48 49 50 50 51 51 50 50 50 50 50 48 48 50 54 54 54 54 53 53 53 53 52 52 52 50 50 51 52 52
53 53 53 54 54 54 53 53 53 53 53 52 51 51 51 50 50 50 50 50 51 51 50 50 49 49 49 50 51 54 55 57 57 56 55 55 53 54 54 51 54 55 56 50 50 47 48 48 48 49 49 48 48 47 47 47 47 49 49 48 48 49 49 48 50 49 47 47 47 49 51 51 51 51 51 51 51 51 50 49 48 49 49 50 51
52 52 53 54 53 52 51 51 51 51 51 51 51 50 51 50 51 51 52 51 51 51 50 49 49 47 48 48 49 49 52 54 56 56 55 54 54 53 52 51 50 51 50 47 47 46 47 47 46 46 48 48 47 46 46 46 49 49 48 45 46 49 49 49 50 49 48 46 45 46 47 48 49 50 49 49 50 50 49 49 49 47 48 50 51
52 53 53 52 52 52 52 52 51 51 50 50 51 51 50 50 49 50 50 52 49 49 49 48 48 49 48 48 47 48 49 49 52 55 55 55 53 50 50 52 51 44 44 45 44 45 47 46 47 47 47 46 47 47 48 48 47 49 47 44 44 45 47 47 48 48 48 48 46 46 46 46 47 48 49 50 48 48 49 48 49 48 47 48 50
52 52 50 51 51 52 52 51 50 49 49 49 49 49 49 49 49 49 49 50 49 48 48 48 48 49 49 48 48 47 47 48 48 50 52 53 53 50 49 50 46 43 43 42 43 44 45 45 45 46 48 47 47 48 47 45 47 48 44 43 43 43 47 48 47 47 47 46 46 46 45 47 48 48 48 49 47 47 48 49 48 47 47 47 48
51 51 51 51 52 54 50 49 49 49 49 48 48 48 49 49 49 49 49 49 49 49 50 50 49 49 49 49 49 48 48 45 46 48 49 49 50 50 49 46 43 44 43 43 43 42 44 43 41 43 47 48 48 48 47 45 49 49 45 44 43 43 48 48 47 45 45 45 44 43 43 44 46 48 49 47 47 47 47 48 48 48 46 45 47
51 52 51 51 50 49 49 50 50 50 49 48 49 48 48 48 49 49 49 49 48 48 47 48 48 48 48 48 48 47 48 46 46 46 46 47 47 49 48 44 43 43 43 42 39 38 42 41 37 43 46 48 48 47 47 47 49 50 46 45 43 46 48 47 46 46 45 46 44 43 44 45 45 45 45 47 46 46 44 46 46 45 44 44 47
51 51 50 50 50 50 50 51 50 49 49 49 49 49 49 49 49 49 48 48 48 48 47 48 48 48 47 47 47 47 46 45 45 46 46 47 47 47 47 43 42 42 41 39 39 38 42 39 38 41 46 47 47 47 47 47 48 52 46 45 44 49 46 43 46 46 46 45 45 45 47 49 48 46 47 47 45 47 45 44 45 44 44 44 44
51 49 49 50 51 51 50 50 49 49 48 48 48 49 48 48 47 48 48 48 48 47 48 47 48 47 47 47 47 48 48 46 45 46 46 46 46 45 44 42 41 40 37 36 34 34 34 41 40 40 41 45 43 43 44 44 44 49 48 44 46 44 42 41 42 46 46 46 45 45 45 45 45 45 43 41 40 43 43 43 45 45 45 43 44
50 49 49 51 51 51 50 50 50 49 48 48 50 49 48 48 47 49 46 46 47 46 46 46 46 48 47 46 46 49 49 48 46 43 44 44 43 42 40 40 38 38 37 36 35 33 33 36 36 38 37 39 39 34 40 39 40 47 45 43 43 42 42 41 40 41 44 45 45 44 45 45 44 44 43 42 41 41 42 42 41 41 44 42 42
51 50 51 51 51 50 50 51 52 50 50 50 50 49 48 49 49 47 47 47 46 46 46 46 46 47 47 47 46 48 49 48 48 47 47 45 43 41 42 40 38 37 36 35 36 35 34 35 38 35 36 36 35 32 33 36 39 41 41 42 40 40 42 41 38 38 41 43 44 44 44 44 44 44 43 43 43 42 42 42 41 42 42 42 42
51 51 51 51 51 50 50 51 51 51 51 50 49 49 49 49 48 47 48 46 46 46 46 46 47 47 47 45 45 48 48 48 48 47 47 47 47 46 46 46 42 41 40 38 35 37 37 35 39 36 39 37 36 39 38 42 42 39 40 42 41 39 41 42 39 38 39 42 43 43 44 45 43 43 43 43 43 43 43 42 42 42 42 43 43
51 52 52 51 51 50 51 50 50 50 52 51 48 48 50 50 49 49 48 47 48 47 47 47 51 47 47 45 46 48 48 49 47 47 47 47 47 48 48 48 47 47 47 44 43 41 38 36 37 41 43 41 39 39 40 41 42 42 42 42 42 42 42 44 43 40 43 42 43 44 44 43 43 43 43 43 43 43 43 42 42 43 43 43 43
51 52 51 51 51 50 50 50 50 50 52 50 48 48 50 50 49 49 49 50 50 50 49 50 50 49 47 46 48 50 49 49 48 48 47 48 48 48 48 48 47 46 46 46 45 41 36 37 39 41 43 41 39 42 41 42 43 42 42 43 43 45 43 42 43 42 42 40 42 41 42 41 42 42 43 43 43 42 42 42 42 43 43 43 43
50 52 50 50 51 50 50 50 50 51 51 51 49 49 50 51 51 50 50 51 52 52 52 51 51 51 51 50 49 50 50 50 49 48 48 47 48 47 47 47 46 46 46 45 46 43 41 41 43 43 43 43 42 41 43 44 43 43 42 41 40 42 43 42 43 43 42 42 41 40 40 41 42 42 42 42 41 42 42 43 43 44 43 42 42
51 52 50 49 50 50 50 50 50 51 50 51 50 50 51 52 51 51 52 53 53 52 52 52 52 51 52 51 51 51 51 51 49 49 48 47 46 46 46 46 45 45 45 45 46 45 45 44 42 42 43 42 43 44 45 43 42 41 43 41 39 40 41 42 41 40 40 41 39 38 39 40 39 40 40 40 41 42 43 43 44 44 44 42 42
54 53 50 49 51 50 50 50 50 51 51 51 52 52 52 53 53 53 53 53 53 53 52 52 53 52 52 52 52 52 54 54 52 50 50 50 48 46 46 46 45 46 45 45 45 45 44 44 43 43 42 42 41 42 41 41 40 40 40 41 40 40 41 40 40 42 40 38 38 37 36 39 38 38 38 38 39 43 42 43 43 44 43 42 42
54 54 54 54 53 52 53 52 52 52 52 52 53 51 51 54 54 54 54 54 53 53 53 52 52 53 52 52 53 59 55 53 50 47 46 47 48 47 47 46 46 45 45 45 44 44 44 44 43 43 43 42 41 40 40 41 41 40 41 40 39 39 38 37 39 39 42 38 37 36 36 38 38 38 39 39 40 42 42 41 40 42 43 41 42
54 53 54 53 53 53 53 53 52 52 53 53 47 47 48 50 54 54 54 53 53 53 53 52 52 53 51 52 53 53 51 51 48 44 44 44 45 45 46 47 48 46 46 45 45 44 44 43 42 43 43 42 41 41 41 41 41 40 39 39 39 38 37 34 33 37 40 37 37 36 35 36 38 38 39 40 40 41 41 39 40 41 41 41 41
54 52 53 53 53 52 52 52 52 52 52 51 42 45 46 48 50 54 53 53 53 53 53 52 52 52 53 53 52 53 51 49 47 44 43 42 41 41 40 41 42 44 45 46 46 44 44 43 43 43 43 42 42 42 41 40 40 39 39 38 37 37 35 34 34 32 36 38 35 35 35 36 38 39 38 38 39 40 39 39 40 40 40 40 40
53 52 52 52 52 53 53 52 52 52 52 46 42 43 45 45 47 51 54 54 53 53 53 53 52 52 52 52 53 53 54 53 50 44 41 40 40 39 39 39 39 40 41 43 44 46 45 44 44 42 43 43 42 42 43 41 40 38 37 36 36 35 35 32 32 34 34 37 35 33 33 35 37 37 35 36 38 38 37 38 40 40 40 39 39
53 52 52 51 52 52 52 52 52 52 52 47 41 43 42 42 43 49 54 53 53 53 53 53 53 53 53 53 53 53 53 53 48 44 42 40 40 40 40 40 38 40 40 39 41 42 44 45 45 44 43 43 42 41 43 40 38 37 36 35 36 34 34 30 32 33 35 38 33 33 33 34 35 33 33 33 37 36 36 38 39 39 39 39 39
53 52 52 51 52 51 51 52 52 52 52 45 41 41 41 41 41 46 52 52 52 52 53 53 53 53 53 53 53 53 53 53 49 45 43 42 42 41 39 39 42 42 41 42 43 44 45 45 44 45 44 42 40 39 40 41 39 38 37 35 36 33 33 35 34 35 35 37 35 33 30 33 33 32 32 33 35 34 34 37 39 39 39 39 38
51 50 50 49 49 50 51 51 51 52 52 45 41 40 41 41 41 48 51 52 52 52 52 52 52 53 53 53 53 52 52 53 49 43 43 45 43 42 40 42 40 37 37 38 37 41 45 45 43 42 40 39 38 38 39 39 40 39 37 36 36 35 33 32 30 33 33 36 34 32 30 31 32 31 32 33 34 33 34 34 38 39 39 39 38
50 50 51 51 50 49 49 50 51 52 51 46 41 40 40 40 41 49 50 51 52 51 52 52 53 52 52 53 53 52 52 52 48 41 41 43 45 43 43 42 40 38 36 36 36 37 38 38 38 37 37 37 37 37 38 38 37 35 34 32 31 32 32 30 32 31 32 33 34 33 30 29 31 30 32 32 33 33 34 33 34 37 38 38 38
46 46 48 49 50 50 50 50 52 51 51 49 41 41 40 39 45 50 50 51 52 52 51 51 51 50 50 52 54 52 52 52 45 41 40 44 45 44 43 42 40 38 36 36 36 35 36 36 36 35 35 36 36 36 37 37 37 38 33 31 31 33 33 32 31 32 32 33 33 34 30 29 31 31 31 32 33 32 33 32 34 35 37 37 37
43 44 44 46 48 48 49 49 52 51 51 50 43 40 40 39 44 50 50 51 51 51 50 48 43 42 42 46 49 51 51 49 42 41 40 44 46 44 43 42 41 39 37 35 34 33 33 32 31 32 33 35 36 35 37 36 37 39 35 34 34 33 33 33 33 31 30 30 32 33 29 29 30 30 30 30 28 30 31 33 33 33 34 34 35